Location: B�rgermoos
(47.6500°N, 9.0667°E)
Time: 17:20:35
(UTC+00:00)

X-37B - Visible Passes

Search period start: 23 June 2021 00:00
Search period end: 03 July 2021 00:00
Orbit: 386 x 389 km, 45.0° (Epoch: 10 June)

Date Brightness Start Highest point End Pass type
(mag) Time Alt. Az. Time Alt. Az. Time Alt. Az.
23 Jun 2.5 02:22:09 12° SSW 02:22:09 12° SSW 02:23:31 10° S visible
23 Jun 2.0 20:32:45 10° SSW 20:35:08 19° SSE 20:37:31 10° ESE visible
23 Jun 1.7 22:08:17 10° WSW 22:10:09 29° SW 22:10:09 29° SW visible
24 Jun 1.1 21:10:06 10° SW 21:13:05 37° SSE 21:15:11 17° ESE visible
24 Jun 2.5 22:46:23 10° W 22:47:29 19° WSW 22:47:29 19° WSW visible
25 Jun 1.6 20:12:04 10° SW 20:14:50 28° SSE 20:17:38 10° E visible
25 Jun 0.7 21:48:04 10° WSW 21:51:11 52° S 21:51:53 41° SE visible
26 Jun 0.8 20:49:48 10° WSW 20:52:53 47° S 20:55:58 10° E visible
26 Jun 1.6 22:26:14 10° W 22:28:18 32° WSW 22:28:18 32° WSW visible
27 Jun 0.7 21:27:55 10° W 21:31:01 52° S 21:32:17 30° ESE visible
28 Jun 0.8 20:29:36 10° WSW 20:32:43 52° S 20:35:50 10° E visible
28 Jun 1.5 22:06:09 10° W 22:08:29 32° SW 22:08:29 32° SW visible
29 Jun 0.9 21:07:47 10° W 21:10:50 45° S 21:12:24 24° SE visible
30 Jun 0.8 20:09:26 10° W 20:12:32 52° S 20:15:39 10° ESE visible
30 Jun 1.8 21:46:07 10° W 21:48:33 26° SSW 21:48:33 26° SSW visible
01 Jul 1.3 20:47:40 10° W 20:50:39 36° SSW 20:52:27 19° SE visible
02 Jul 2.4 21:26:16 10° WSW 21:28:35 18° SSW 21:28:38 18° SSW visible
